Wind_Speed
23 23 24 25 27 29 32 34 37 38 39 40 40 41 43 44 44 45 47 46 45 45 45 43 41 39 39 39 38 38 38 38 38 39 40 41 42 43 45 45 46 46 47
24 25 26 26 26 29 31 33 34 35 36 37 38 40 40 41 41 42 43 43 43 42 42 41 41 41 41 40 39 39 40 40 40 40 41 42 43 44 44 44 45 45 46
26 27 28 29 30 31 33 35 35 36 37 38 38 40 41 41 41 41 42 43 43 43 42 42 41 41 40 40 40 40 41 41 41 41 41 42 43 44 44 44 45 45 45
29 30 32 33 34 35 36 37 38 39 40 40 40 40 42 41 40 41 42 42 42 42 42 41 41 41 41 41 41 42 42 41 42 42 42 43 43 43 43 43 43 43 43
31 33 35 36 37 38 39 40 40 41 42 43 43 42 42 42 43 43 43 43 43 43 43 43 43 43 43 43 43 43 43 43 43 43 43 43 43 43 43 42 42 42 42
35 36 38 39 40 41 41 42 43 44 44 45 45 44 44 44 45 45 46 46 46 45 46 45 45 45 45 44 44 44 44 44 44 44 44 43 43 42 41 41 41 41 41
39 40 42 44 45 46 46 46 46 47 47 47 46 47 47 47 47 47 47 48 47 47 48 47 47 46 46 46 46 46 46 46 45 45 44 43 42 41 40 40 40 40 39
43 44 46 47 48 49 49 50 50 51 50 50 50 50 50 50 50 50 50 49 49 49 48 48 48 48 47 47 47 47 47 47 45 44 44 42 41 40 40 39 39 38 37
46 47 49 50 51 52 52 53 53 53 54 54 53 53 53 52 52 52 52 52 51 51 50 50 50 49 48 48 47 47 47 46 45 44 42 41 40 39 39 39 38 36 35
49 50 51 53 53 54 55 56 56 56 56 56 55 55 55 54 54 53 52 52 51 51 51 50 50 49 48 47 47 46 45 44 43 42 41 40 39 39 38 38 37 35 34
53 54 55 55 56 57 58 58 58 58 58 57 56 56 56 55 54 54 52 51 51 50 50 49 48 48 47 46 46 45 44 44 43 42 40 40 39 38 37 37 35 34 33
56 57 58 58 59 59 59 59 59 59 59 58 57 56 55 54 54 53 52 52 51 50 49 49 48 47 47 46 46 45 44 43 42 41 40 39 38 37 37 36 34 33 32
58 59 59 59 59 59 59 59 58 58 57 57 57 56 55 54 53 53 52 52 51 50 50 49 48 47 46 46 45 44 43 42 41 41 40 39 38 37 36 35 34 33 31
59 59 60 60 59 59 58 57 56 55 55 54 54 54 54 53 52 52 51 51 51 51 50 49 49 47 46 45 44 43 42 42 41 40 39 39 38 37 35 34 33 32 31
60 60 60 60 59 58 57 56 55 54 53 52 51 50 51 51 51 51 51 51 51 51 50 50 48 47 46 45 44 43 42 41 40 40 39 38 37 36 35 33 32 32 31
58 58 58 58 58 57 56 55 54 53 52 52 50 50 50 50 50 50 50 50 50 50 50 48 47 46 45 44 42 42 41 41 40 39 38 37 36 35 34 33 32 32 30
56 55 54 54 53 52 51 51 49 50 50 50 49 49 49 49 49 49 49 49 49 49 48 47 46 45 44 43 42 41 40 40 39 39 38 37 36 35 34 33 32 32 31
52 51 50 49 47 46 45 44 44 45 45 46 47 47 48 48 48 49 49 49 48 47 46 45 45 44 43 42 41 41 40 39 39 38 37 36 35 35 34 33 33 32 31
48 46 45 44 42 41 41 41 41 40 40 41 43 45 45 46 48 48 47 47 46 46 45 44 44 43 42 41 40 40 39 39 38 37 36 36 35 34 34 33 33 32 32
44 43 42 40 38 37 37 37 38 37 37 37 39 41 43 44 45 46 45 45 44 44 44 43 42 42 41 41 40 39 39 38 37 37 36 36 35 35 34 33 33 32 32
41 40 40 38 36 35 34 34 34 34 34 35 36 38 40 41 42 43 43 44 43 43 43 43 42 41 40 40 39 39 38 37 36 35 35 35 35 35 34 34 33 33 32
39 38 37 35 33 32 31 30 30 30 30 31 32 35 37 39 40 41 41 42 42 42 42 42 41 40 40 39 39 38 37 37 36 35 35 35 35 34 34 34 33 33 33
36 34 33 31 29 28 27 26 26 26 27 27 29 31 34 36 37 38 39 40 40 41 41 41 41 40 39 39 38 38 38 37 36 35 35 34 34 34 34 34 33 33 33
33 31 29 27 26 25 24 24 24 24 25 26 27 28 30 32 34 35 37 38 38 38 39 39 39 38 38 37 37 38 38 37 36 35 34 34 34 34 33 33 33 33 33
30 28 26 24 23 22 22 22 22 22 23 23 25 26 28 30 31 32 34 36 36 36 37 37 36 36 35 35 35 35 36 35 35 35 34 34 33 33 33 33 33 33 33
28 25 23 22 21 20 19 20 20 19 20 20 21 23 24 27 29 30 31 32 34 34 35 35 35 34 33 33 33 33 33 33 33 33 33 33 32 32 32 32 32 32 33
Wind_Direction
249 249 250 249 248 247 248 249 249 249 250 249 248 250 252 253 254 254 253 256 258 259 260 260 260 262 264 267 271 272 274 276 278 280 283 286 288 290 291 292 293 294 294
253 254 256 257 255 254 254 255 256 255 254 254 253 253 254 254 253 255 255 257 258 259 259 260 262 264 266 268 269 270 273 275 277 281 283 285 287 289 290 291 292 293 294
255 256 257 258 259 259 258 258 258 259 259 259 258 257 256 256 256 256 256 257 257 259 260 262 263 264 265 266 268 270 274 276 278 281 282 284 286 287 289 290 291 292 293
259 261 261 261 261 261 261 261 260 261 260 259 258 258 258 258 259 259 258 258 258 259 261 262 263 263 264 266 269 272 274 276 278 279 281 283 285 286 288 289 290 292 293
266 265 263 263 262 262 263 263 262 261 260 259 259 259 259 259 258 258 258 258 259 259 259 261 262 264 266 269 270 271 273 275 277 278 280 282 283 285 286 288 289 291 292
271 269 266 265 265 265 265 264 263 263 262 261 261 261 261 259 258 258 258 258 258 260 261 262 263 264 266 267 269 271 273 274 275 277 279 281 282 284 285 286 288 290 291
273 271 269 268 267 267 266 266 265 264 263 263 262 261 260 260 259 258 258 259 260 260 261 262 262 263 264 266 268 270 272 274 274 276 277 279 281 282 284 285 287 289 290
274 272 271 270 270 269 268 267 266 265 264 263 262 261 261 260 259 258 258 258 259 259 260 261 262 263 264 266 268 269 271 272 273 274 275 277 278 280 282 284 286 287 287
275 273 272 272 271 270 268 267 266 265 265 264 262 261 261 260 259 258 258 258 258 258 259 260 261 261 263 264 266 268 269 270 271 272 273 275 277 279 280 282 284 284 284
278 276 275 273 272 272 271 270 268 267 266 265 263 262 261 259 258 258 258 257 257 257 258 258 259 259 261 263 264 265 266 267 269 270 272 274 275 277 278 280 281 281 281
280 279 277 276 274 273 273 272 270 269 267 265 263 261 260 258 257 256 256 255 255 255 255 256 257 258 259 260 262 263 263 265 266 268 270 272 273 274 276 277 278 279 278
282 280 279 277 276 275 273 271 270 269 266 264 262 261 259 258 256 255 254 253 252 252 253 253 254 255 256 257 259 260 261 262 264 266 267 269 270 272 273 274 276 276 276
285 283 281 279 277 276 274 273 271 269 266 264 262 260 258 257 256 254 253 252 251 250 250 251 252 253 253 254 256 258 259 260 262 263 264 266 267 269 271 272 273 273 273
285 284 282 281 279 278 276 273 271 268 266 264 262 259 257 254 253 251 250 249 249 248 248 249 249 250 251 253 255 257 258 258 259 261 262 263 265 267 268 269 270 270 271
287 285 283 281 280 278 276 273 270 268 265 263 260 257 254 251 250 248 247 246 246 246 247 247 249 250 250 252 253 254 255 257 258 259 260 262 263 264 265 266 267 268 269
289 287 285 283 281 279 276 272 270 266 263 261 258 255 251 249 246 245 244 244 244 244 245 246 247 248 249 250 251 253 254 256 256 257 258 260 261 261 262 263 264 266 267
292 290 288 286 284 280 276 273 268 264 262 258 255 253 249 246 244 243 242 242 241 243 243 244 244 245 246 248 249 251 253 254 255 255 257 258 258 259 260 261 262 264 264
295 293 291 288 286 282 277 273 268 264 260 256 253 251 248 245 243 242 241 240 240 241 241 242 243 243 244 246 247 249 251 252 253 254 255 256 256 257 258 259 261 262 263
298 295 293 290 287 283 279 274 269 265 260 254 251 248 246 243 241 240 239 239 238 239 239 239 241 242 243 244 246 247 249 250 251 252 253 254 255 256 257 258 260 261 262
299 297 295 292 287 283 280 275 269 264 259 254 250 246 244 241 239 238 238 237 236 237 237 237 238 239 240 242 244 245 247 248 249 250 251 253 254 255 256 258 260 261 261
299 297 296 293 287 283 281 276 269 263 258 254 250 245 242 240 238 237 236 235 234 234 234 235 235 237 239 241 243 244 245 247 247 248 250 252 253 255 256 258 259 260 260
301 298 296 292 287 284 281 275 269 263 257 253 249 245 241 238 236 235 234 233 232 232 233 234 234 235 237 239 241 242 244 246 247 248 250 251 253 254 256 257 258 259 260
306 302 298 293 288 283 280 277 269 262 257 251 248 245 241 237 234 233 232 231 231 231 232 233 233 234 236 238 240 241 242 245 247 249 250 251 253 254 255 256 257 259 260
309 305 301 296 289 283 279 275 269 263 258 253 249 246 241 237 233 231 230 229 230 231 231 232 233 234 235 236 238 240 241 243 246 248 249 251 253 254 255 256 257 260 262
314 309 304 299 293 285 279 273 268 264 259 254 249 245 240 234 230 229 228 227 227 228 229 231 232 233 234 236 238 238 240 243 245 246 249 251 253 254 255 256 258 260 262
317 314 309 303 296 289 281 274 267 262 258 253 247 242 236 232 228 227 227 226 226 226 227 228 229 230 232 235 236 237 240 242 243 246 249 251 253 255 257 257 258 260 263
Height
5666 5669 5671 5673 5676 5678 5681 5683 5686 5688 5691 5693 5695 5697 5699 5701 5703 5705 5707 5708 5710 5712 5713 5715 5716 5717 5719 5719 5720 5720 5721 5721 5721 5721 5719 5718 5716 5714 5711 5709 5706 5703 5699
5660 5662 5664 5666 5668 5670 5672 5674 5676 5678 5681 5682 5684 5686 5688 5690 5691 5693 5695 5697 5699 5701 5702 5703 5705 5706 5707 5708 5709 5709 5710 5709 5710 5709 5708 5707 5705 5703 5700 5698 5695 5691 5688
5653 5655 5656 5658 5660 5661 5663 5665 5667 5668 5670 5672 5673 5675 5677 5679 5680 5682 5684 5686 5688 5689 5691 5692 5693 5695 5696 5697 5697 5698 5698 5698 5698 5698 5697 5695 5694 5692 5689 5686 5684 5681 5677
5646 5647 5648 5650 5651 5652 5653 5654 5656 5657 5659 5660 5662 5664 5665 5667 5669 5670 5672 5674 5676 5677 5679 5680 5681 5683 5684 5685 5686 5686 5686 5686 5686 5686 5685 5684 5682 5680 5678 5676 5673 5670 5667
5637 5637 5638 5639 5640 5640 5641 5642 5644 5645 5646 5648 5649 5651 5653 5654 5656 5658 5660 5661 5663 5664 5666 5668 5669 5670 5672 5673 5673 5674 5674 5674 5674 5674 5673 5672 5671 5669 5667 5665 5662 5659 5656
5626 5627 5627 5627 5628 5628 5629 5630 5630 5632 5633 5634 5636 5638 5639 5641 5642 5644 5646 5648 5649 5651 5653 5655 5656 5657 5659 5660 5661 5661 5662 5662 5662 5662 5661 5660 5659 5658 5656 5654 5651 5649 5646
5615 5615 5615 5615 5615 5615 5615 5616 5616 5617 5618 5620 5621 5623 5625 5626 5628 5629 5631 5633 5635 5637 5639 5641 5642 5644 5645 5647 5647 5648 5649 5649 5649 5650 5649 5648 5648 5646 5645 5643 5641 5639 5636
5603 5602 5601 5601 5601 5600 5600 5600 5601 5601 5603 5604 5605 5607 5609 5611 5612 5614 5616 5618 5621 5623 5625 5627 5628 5630 5632 5633 5634 5635 5636 5637 5637 5637 5637 5637 5636 5635 5634 5632 5630 5628 5626
5589 5588 5586 5585 5584 5584 5584 5583 5584 5584 5585 5587 5588 5590 5592 5594 5596 5598 5600 5602 5605 5607 5610 5612 5614 5616 5617 5619 5621 5622 5623 5624 5624 5625 5625 5625 5624 5623 5622 5621 5620 5618 5617
5574 5572 5570 5568 5567 5566 5566 5565 5565 5566 5567 5568 5570 5572 5575 5577 5579 5581 5583 5586 5589 5592 5594 5596 5598 5601 5603 5605 5607 5609 5610 5611 5612 5613 5613 5613 5613 5612 5611 5611 5610 5609 5607
5558 5555 5552 5550 5548 5547 5546 5546 5546 5546 5547 5549 5551 5553 5556 5558 5561 5563 5566 5569 5573 5575 5578 5581 5583 5586 5588 5591 5593 5595 5597 5598 5599 5600 5601 5601 5601 5601 5601 5600 5600 5599 5598
5541 5537 5534 5531 5529 5527 5526 5526 5525 5526 5527 5529 5531 5534 5537 5540 5543 5545 5548 5552 5556 5559 5563 5566 5569 5571 5574 5577 5579 5581 5583 5585 5587 5588 5589 5589 5590 5590 5590 5590 5589 5589 5589
5522 5518 5514 5511 5509 5507 5505 5505 5505 5505 5506 5508 5511 5514 5517 5520 5524 5527 5531 5535 5539 5543 5547 5550 5553 5556 5559 5562 5565 5568 5570 5572 5574 5575 5577 5577 5578 5579 5579 5579 5579 5579 5579
5502 5498 5494 5491 5488 5486 5484 5484 5484 5484 5485 5487 5490 5493 5497 5501 5505 5509 5513 5517 5522 5526 5530 5534 5538 5541 5545 5548 5552 5554 5557 5559 5561 5563 5564 5566 5567 5568 5568 5569 5569 5570 5569
5482 5477 5473 5470 5467 5465 5464 5463 5463 5464 5465 5467 5470 5473 5478 5483 5487 5491 5495 5500 5505 5510 5514 5518 5523 5527 5531 5535 5538 5541 5544 5546 5549 5551 5552 5554 5555 5557 5558 5558 5559 5560 5560
5462 5457 5453 5449 5446 5444 5443 5443 5442 5444 5445 5447 5450 5454 5458 5464 5468 5473 5478 5483 5488 5493 5498 5503 5508 5513 5517 5521 5525 5528 5531 5533 5536 5538 5541 5542 5544 5546 5547 5548 5549 5550 5550
5443 5438 5433 5429 5426 5424 5422 5422 5423 5425 5425 5427 5431 5435 5440 5445 5450 5455 5461 5466 5472 5477 5483 5489 5494 5499 5504 5508 5511 5515 5518 5521 5524 5526 5529 5531 5533 5534 5536 5537 5538 5539 5540
5425 5419 5414 5411 5407 5405 5404 5404 5404 5406 5408 5410 5413 5418 5422 5428 5433 5439 5444 5450 5456 5463 5469 5475 5481 5486 5490 5494 5498 5502 5505 5508 5512 5514 5517 5519 5521 5523 5525 5527 5528 5529 5530
5409 5403 5398 5394 5391 5389 5388 5388 5388 5389 5391 5394 5397 5401 5406 5411 5417 5423 5429 5435 5442 5449 5455 5461 5467 5472 5477 5481 5485 5489 5493 5496 5500 5503 5505 5508 5510 5512 5514 5516 5517 5519 5520
5394 5388 5384 5380 5377 5375 5374 5373 5373 5375 5376 5379 5383 5386 5391 5396 5402 5409 5415 5422 5429 5435 5441 5448 5453 5459 5464 5469 5473 5477 5481 5485 5488 5491 5494 5497 5499 5501 5503 5505 5507 5508 5509
5380 5375 5370 5367 5364 5362 5361 5360 5360 5361 5363 5366 5369 5373 5377 5383 5389 5395 5402 5409 5416 5422 5429 5435 5441 5447 5452 5456 5461 5465 5469 5473 5477 5480 5483 5485 5488 5490 5492 5494 5496 5498 5499
5366 5362 5358 5354 5352 5350 5349 5348 5348 5349 5351 5354 5357 5360 5365 5370 5377 5383 5390 5397 5403 5410 5416 5423 5429 5434 5440 5445 5449 5454 5458 5462 5465 5469 5471 5474 5477 5479 5481 5483 5485 5487 5488
5354 5350 5346 5343 5341 5339 5339 5338 5338 5339 5341 5343 5347 5350 5354 5359 5365 5372 5379 5385 5392 5398 5405 5411 5417 5423 5428 5433 5438 5442 5447 5451 5454 5458 5460 5463 5466 5468 5470 5472 5474 5476 5477
5345 5340 5336 5333 5332 5331 5330 5330 5330 5331 5333 5335 5338 5341 5345 5350 5356 5362 5368 5375 5381 5388 5394 5400 5406 5412 5417 5422 5427 5431 5436 5440 5443 5447 5450 5452 5455 5457 5459 5461 5463 5465 5466
5337 5332 5329 5326 5324 5323 5322 5322 5323 5323 5325 5327 5329 5333 5336 5341 5347 5353 5359 5365 5372 5378 5384 5390 5396 5402 5407 5412 5416 5421 5425 5429 5432 5436 5439 5442 5444 5447 5449 5451 5452 5454 5455
5330 5326 5323 5320 5318 5317 5316 5316 5316 5317 5318 5320 5322 5325 5329 5334 5340 5345 5351 5357 5363 5369 5375 5381 5387 5393 5398 5402 5407 5411 5415 5418 5422 5425 5429 5432 5434 5436 5438 5440 5441 5443 5444